Tracking 18957 objects as of 23-Jan-2018
HD Live streaming from Space Station
objects crossing your sky now

FENGYUN 1C DEB

Track FENGYUN 1C DEB now!
10-day predictions


NORAD ID: 31346
Int'l Code: 1999-025BRA
Perigee: 514.6 km
Apogee: 804.1 km
Inclination: 98.9 °
Period: 97.8 minutes
Semi major axis: 7030 km
RCS: 0.0162 m2 (small)
Launch date: May 10, 1999
Source: People's Republic of China (PRC)
Launch site: Taiyaun Space Center, China (TSC)

Note: This is SATELLITE DEBRIS
aabbcc
Your satellite tracking list
Your tracking list is empty




NASA's NSSDC Master Catalog

Two Line Element Set (TLE):
1 31346U 99025BRA 18022.18894969 +.00000443 +00000-0 +58062-4 0  9995
2 31346 098.8888 012.2630 0205902 132.4987 288.2229 14.72777168568589
Source of the keplerian elements: AFSPC